Date String (YYYY-MM-DD hh:mm:ss) UTC,Instrument flags,absolute air pressure of the measurement (hPa),sample flow rate (lpm),inlet stack bypass flow (lpm),air temperature of the measurement (°C),ambient temperature measured by the external sensor (°C),aerosol sample conditioner tube jacket temperature (°C),OPC LED temperature (°C),internal box temperature (°C),relative humidity of the measurement (%),span deviation,mass concentration of particles derived from Lorenz-Mie calculation of OPC scattering (μg/m³),mass concentration of particles derived from Lorenz-Mie calculation of OPC scattering (μg/m³),mass concentration of particles derived from Lorenz-Mie calculation of OPC scattering (μg/m³)
DateTimeUTC,F1_M11,P_M11,Q1_M11,Q2_M11,T1_M11,T2_M11,T3_M11,T4_M11,T5_M11,U1_M11,ZSPAN_M11,X2_M11,X0_M11,X1_M11
2024-03-28 14:00:00,SystemResetWarning,0825.9,5.01,000.00,018.4,017.8,000.0,027.0,020.1,12.7,0000.0,0001.99,0003.75,0001.37
2024-03-28 14:01:00,SystemResetWarning,0825.9,5.00,000.00,018.4,017.7,000.0,027.0,020.1,12.8,0000.0,0002.00,0004.17,0001.36
2024-03-28 14:02:00,SystemResetWarning,0825.9,4.99,000.00,018.4,017.7,000.0,026.9,020.1,12.9,0000.0,0002.02,0003.78,0001.36
2024-03-28 14:03:00,SystemResetWarning,0825.9,5.00,000.00,018.4,017.7,000.0,026.9,020.0,12.8,0000.0,0001.96,0003.93,0001.36
2024-03-28 14:04:00,SystemResetWarning,0825.9,5.01,000.00,018.4,017.7,000.0,026.9,020.0,12.9,0000.0,0001.95,0004.76,0001.37
2024-03-28 14:05:00,SystemResetWarning,0826.0,4.99,000.00,018.3,017.6,000.0,026.9,020.0,13.0,0000.0,0001.93,0004.73,0001.38
2024-03-28 14:06:00,SystemResetWarning,0826.1,5.01,000.00,018.3,017.6,000.0,026.9,020.0,13.3,0000.0,0001.90,0004.63,0001.38
2024-03-28 14:07:00,SystemResetWarning,0826.2,5.01,000.00,018.3,017.6,000.0,026.9,020.0,15.0,0000.0,0001.89,0005.69,0001.39
2024-03-28 14:08:00,SystemResetWarning,0826.2,5.01,000.00,018.3,017.7,000.0,026.9,020.0,14.5,0000.0,0001.90,0006.46,0001.39
2024-03-28 14:09:00,SystemResetWarning,0826.2,4.99,000.00,018.3,017.6,000.0,026.9,020.0,14.0,0000.0,0001.93,0006.65,0001.39
2024-03-28 14:10:00,SystemResetWarning,0826.1,5.00,000.00,018.3,017.6,000.0,026.9,020.0,13.6,0000.0,0001.98,0006.77,0001.40
2024-03-28 14:11:00,SystemResetWarning,0826.0,5.00,000.00,018.3,017.6,000.0,026.9,020.0,13.4,0000.0,0002.01,0006.89,0001.39
2024-03-28 14:12:00,SystemResetWarning,0826.1,5.00,000.00,018.3,017.6,000.0,026.9,020.0,13.3,0000.0,0001.97,0006.53,0001.39
2024-03-28 14:13:00,SystemResetWarning,0826.1,5.00,000.00,018.3,017.6,000.0,026.9,020.0,13.2,0000.0,0001.93,0006.56,0001.37
2024-03-28 14:14:00,SystemResetWarning,0826.2,5.01,000.00,018.3,017.6,000.0,026.9,020.0,13.2,0000.0,0001.93,0006.29,0001.37
2024-03-28 14:15:00,SystemResetWarning,0826.2,5.01,000.00,018.3,017.6,000.0,026.9,020.0,13.1,0000.0,0001.92,0005.38,0001.37
2024-03-28 14:16:00,SystemResetWarning,0826.3,4.99,000.00,018.3,017.6,000.0,026.9,020.0,13.2,0000.0,0001.94,0005.65,0001.36
2024-03-28 14:17:00,SystemResetWarning,0826.3,4.99,000.00,018.3,017.6,000.0,026.9,020.0,13.9,0000.0,0002.01,0006.03,0001.37
2024-03-28 14:18:00,SystemResetWarning,0826.3,5.00,000.00,018.3,017.6,000.0,026.9,020.0,14.0,0000.0,0002.01,0005.01,0001.37
2024-03-28 14:19:00,SystemResetWarning,0826.2,5.01,000.00,018.3,017.6,000.0,026.9,020.0,13.6,0000.0,0002.03,0004.25,0001.37
2024-03-28 14:20:00,SystemResetWarning,0826.2,5.01,000.00,018.3,017.6,000.0,026.9,020.0,13.4,0000.0,0002.01,0004.09,0001.38
2024-03-28 14:21:00,SystemResetWarning,0826.1,5.00,000.00,018.3,017.6,000.0,026.9,020.0,13.1,0000.0,0001.98,0003.96,0001.38
2024-03-28 14:22:00,SystemResetWarning,0826.0,5.00,000.00,018.3,017.6,000.0,026.9,020.0,13.1,0000.0,0001.94,0003.72,0001.37
2024-03-28 14:23:00,SystemResetWarning,0826.0,5.00,000.00,018.3,017.6,000.0,026.9,020.0,13.1,0000.0,0001.96,0003.61,0001.37
2024-03-28 14:24:00,SystemResetWarning,0826.0,5.00,000.00,018.3,017.6,000.0,026.9,020.0,13.1,0000.0,0001.96,0003.68,0001.36
2024-03-28 14:25:00,SystemResetWarning,0826.0,5.01,000.00,018.3,017.6,000.0,026.9,020.0,13.1,0000.0,0001.99,0003.77,0001.36
2024-03-28 14:26:00,SystemResetWarning,0826.0,5.01,000.00,018.3,017.6,000.0,026.9,020.0,13.1,0000.0,0002.00,0003.82,0001.35
2024-03-28 14:27:00,SystemResetWarning,0826.0,5.01,000.00,018.3,017.6,000.0,026.9,020.0,14.2,0000.0,0001.98,0003.62,0001.35
2024-03-28 14:28:00,SystemResetWarning,0826.0,5.00,000.00,018.3,017.7,000.0,026.9,020.0,15.5,0000.0,0002.00,0003.44,0001.35
2024-03-28 14:29:00,SystemResetWarning,0826.0,5.00,000.00,018.3,017.7,000.0,026.8,020.0,13.9,0000.0,0002.01,0003.48,0001.35
2024-03-28 14:30:00,SystemResetWarning,0826.0,5.00,000.00,018.3,017.7,000.0,026.8,020.0,13.2,0000.0,0002.01,0003.59,0001.33
2024-03-28 14:31:00,SystemResetWarning,0826.0,5.00,000.00,018.3,017.7,000.0,026.8,020.0,13.1,0000.0,0002.00,0003.72,0001.33
2024-03-28 14:32:00,SystemResetWarning,0826.0,5.00,000.00,018.3,017.7,000.0,026.8,020.0,13.7,0000.0,0002.01,0003.76,0001.34
2024-03-28 14:33:00,SystemResetWarning,0826.0,5.01,000.00,018.3,017.7,000.0,026.8,020.0,13.7,0000.0,0002.01,0003.81,0001.35
2024-03-28 14:34:00,SystemResetWarning,0825.9,5.01,000.00,018.3,017.7,000.0,026.8,020.0,13.1,0000.0,0002.04,0003.91,0001.36
2024-03-28 14:35:00,SystemResetWarning,0825.9,5.01,000.00,018.3,017.7,000.0,026.8,020.0,13.2,0000.0,0002.03,0003.80,0001.38
2024-03-28 14:36:00,SystemResetWarning,0825.9,5.00,000.00,018.3,017.7,000.0,026.8,020.0,13.7,0000.0,0002.01,0003.75,0001.39
2024-03-28 14:37:00,SystemResetWarning,0825.9,5.00,000.00,018.3,017.7,000.0,026.8,020.0,13.8,0000.0,0002.04,0003.92,0001.40
2024-03-28 14:38:00,SystemResetWarning,0825.9,4.99,000.00,018.3,017.7,000.0,026.8,020.0,13.9,0000.0,0002.08,0004.01,0001.40
2024-03-28 14:39:00,SystemResetWarning,0825.9,4.99,000.00,018.3,017.7,000.0,026.8,020.0,13.8,0000.0,0002.01,0003.78,0001.39
2024-03-28 14:40:00,SystemResetWarning,0825.8,5.00,000.00,018.3,017.7,000.0,026.8,020.0,13.6,0000.0,0001.98,0003.57,0001.39
2024-03-28 14:41:00,SystemResetWarning,0825.9,5.01,000.00,018.3,017.7,000.0,026.8,020.0,14.4,0000.0,0001.98,0003.41,0001.40
2024-03-28 14:42:00,SystemResetWarning,0825.9,5.01,000.00,018.3,017.8,000.0,026.8,020.0,14.7,0000.0,0001.95,0003.19,0001.38
2024-03-28 14:43:00,SystemResetWarning,0825.9,5.00,000.00,018.3,017.8,000.0,026.8,020.0,14.3,0000.0,0001.93,0003.16,0001.37
2024-03-28 14:44:00,SystemResetWarning,0825.9,4.99,000.00,018.3,017.8,000.0,026.8,020.0,14.1,0000.0,0001.92,0003.24,0001.36
2024-03-28 14:45:00,SystemResetWarning,0825.9,5.00,000.00,018.3,017.8,000.0,026.8,020.0,14.1,0000.0,0001.90,0003.30,0001.35
2024-03-28 14:46:00,SystemResetWarning,0825.9,5.00,000.00,018.3,017.8,000.0,026.8,020.0,15.9,0000.0,0001.91,0003.44,0001.35
2024-03-28 14:47:00,SystemResetWarning,0825.9,5.00,000.00,018.3,017.7,000.0,026.8,020.0,16.9,0000.0,0001.95,0003.58,0001.35
2024-03-28 14:48:00,SystemResetWarning,0825.9,5.00,000.00,018.3,017.7,000.0,026.8,020.0,16.2,0000.0,0001.96,0003.49,0001.36
2024-03-28 14:49:00,SystemResetWarning,0825.9,5.00,000.00,018.3,017.6,000.0,026.8,020.0,15.4,0000.0,0001.96,0003.44,0001.38
2024-03-28 14:50:00,SystemResetWarning,0825.9,5.01,000.00,018.3,017.6,000.0,026.8,020.0,15.1,0000.0,0002.01,0003.63,0001.40
2024-03-28 14:51:00,SystemResetWarning,0825.9,5.01,000.00,018.3,017.6,000.0,026.8,020.0,15.1,0000.0,0002.06,0003.77,0001.41
2024-03-28 14:52:00,SystemResetWarning,0825.9,5.01,000.00,018.3,017.6,000.0,026.9,020.0,15.9,0000.0,0002.07,0004.41,0001.41
2024-03-28 14:53:00,SystemResetWarning,0825.9,4.99,000.00,018.3,017.6,000.0,026.8,020.0,15.5,0000.0,0002.11,0005.13,0001.44
2024-03-28 14:54:00,SystemResetWarning,0825.9,5.00,000.00,018.3,017.7,000.0,026.8,020.0,15.2,0000.0,0002.09,0005.07,0001.45
2024-03-28 14:55:00,SystemResetWarning,0825.8,5.00,000.00,018.3,017.7,000.0,026.8,020.0,14.7,0000.0,0002.12,0005.02,0001.48
2024-03-28 14:56:00,SystemResetWarning,0825.8,5.00,000.00,018.3,017.7,000.0,026.8,020.0,14.6,0000.0,0002.13,0004.92,0001.49
2024-03-28 14:57:00,SystemResetWarning,0825.8,5.00,000.00,018.3,017.7,000.0,026.8,020.0,14.3,0000.0,0002.12,0004.79,0001.50
2024-03-28 14:58:00,SystemResetWarning,0825.9,5.00,000.00,018.3,017.8,000.0,026.8,020.0,14.1,0000.0,0002.12,0004.73,0001.49
2024-03-28 14:59:00,SystemResetWarning,0825.9,5.00,000.00,018.3,017.8,000.0,026.8,020.0,14.8,0000.0,0002.08,0005.23,0001.48
